User: anonymous   Login
Location: Unspecified
(0.0000°N, 0.0000°E)
Time: 07:49:04
(UTC+00:00)
Language:

ZHUHAI-1 OVS-02 - Orbit

View from above orbital plane
View from above orbital plane
View from above satellite
View from above satellite

Ground track
Ground track

The orbit data is extracted from the following two-line orbital elements,

1 43440U 18040B   20223.85644870  .00000775  00000-0  40230-4 0  9991
2 43440  97.3292 295.0483 0009210 262.8468 194.5928 15.18955755127119
Epoch (UTC): 10 August 2020 20:33:17
Eccentricity: 0.0009210
inclination: 97.3292°
perigee height: 502 km
apogee height: 515 km
right ascension of ascending node: 295.0483°
argument of perigee: 262.8468°
revolutions per day: 15.18955755
mean anomaly at epoch: 194.5928°
orbit number at epoch: 12711

The dashed part of the orbit path shows where the satellite is in the earth's shadow,  

DLR